Regional Weather Roundup
Issued by NWS State College, PA

Home | Current Version | Previous Version | Text Only | Print | Product List | Glossary On
Versions: 1 2 3 4 5 6 7 8 9 10 11 12 13 14 15 16 17 18 19 20 21 22 23 24 25 26 27 28 29 30 31 32 33 34 35 36 37 38 39 40 41 42 43 44 45 46 47 48 49 50
000
ASUS41 KCTP 251510
RWRCTP

REGIONAL WEATHER ROUNDUP
NATIONAL WEATHER SERVICE STATE COLLEGE PA
1000 AM EST SUN JAN 25 2015

Note: "fair" indicates few or no clouds below 12,000 feet with no
significant weather and/or obstructions to visibility.

* = STATION THAT DOES NOT REPORT PRECIPITATION /E.G. RAIN...SNOW...ETC/
    THUNDER OR FOG.

PAZ002>004-007>009-013>016-020>023-029>032-251600-
WESTERN PENNSYLVANIA

CITY           SKY/WX    TMP DP  RH WIND       PRES   REMARKS
ERIE           CLOUDY    23  15  71 N14       29.87R WCI  11
MEADVILLE      LGT SNOW  25  22  88 N7        29.79R FOG
FRANKLIN*      CLOUDY    27  21  80 CALM      29.79R
NEW CASTLE     CLOUDY    32  31  96 N7        29.80R FOG
BEAVER COUNTY  LGT SNOW  32  32 100 CALM      29.76R
BUTLER*        CLOUDY    34  30  86 W3        29.78S
PITTSBURGH INT CLOUDY    34  31  88 SW6       29.77R FOG
PITTSBURGH     CLOUDY    33  28  81 SW8       29.76R HAZE
INDIANA*       FOG       34  32  93 W6        29.79R VSB 1
LATROBE        CLOUDY    32  32 100 SW9       29.79R FOG
WASHINGTON CO* CLOUDY    34  30  86 SW6       29.79S
$$

PAZ004>006-010>012-017>019-024>028-033>037-041-042-045-046-049>053-251600-
CENTRAL PENNSYLVANIA

CITY           SKY/WX    TMP DP  RH WIND       PRES   REMARKS
BRADFORD       CLOUDY    23  17  78 NW13      29.73R WCI  11
DUBOIS         LGT SNOW  28  26  92 N8        29.74R VSB 3/4
CLEARFIELD     FLURRIES  31  27  85 N12       29.75R
JOHNSTOWN      FOG       30  29  96 W8        29.71R VSB<1/4
ALTOONA        CLOUDY    34  32  92 W5        29.76R FOG
STATE COLLEGE  LGT SNOW  34  30  86 W7        29.75R
WILLIAMSPORT   CLOUDY    36  23  59 NW10      29.77R
SELINSGROVE    CLOUDY    38  30  73 CALM      29.77R
FT INDIANTOWN  CLOUDY    37  30  75 SW5       29.77R
CAPITAL CITY   CLOUDY    38  29  70 W6        29.79S
HARRISBURG     CLOUDY    37  29  72 SW13      29.78S
YORK           CLOUDY    38  29  70 SW8       29.79S
$$

PAZ038>040-043-044-047-048-054-055-060>062-067>071-251600-
EASTERN PENNSYLVANIA

CITY           SKY/WX    TMP DP  RH WIND       PRES   REMARKS
SCRANTON       SUNNY     33  15  47 NW16G23   29.74R
MOUNT POCONO   SUNNY     30  12  47 NW22G31   29.66R
ALLENTOWN      CLOUDY    40  28  62 W9        29.75R
QUAKERTOWN*    NOT AVBL
READING        CLOUDY    38  28  67 W6        29.77R
LANCASTER      CLOUDY    36  29  75 W8        29.78R
COATESVILLE    CLOUDY    39  32  75 W8        29.78R
POTTSTOWN      CLOUDY    38  28  67 W5        29.79R
BLUE BELL      CLOUDY    41  30  65 W8        29.77R
DOYLESTOWN     MOSUNNY   39  29  67 W12G23    29.76R
WILLOW GROVE   NOT AVBL
NORTH PHILA    MOSUNNY   41  27  57 SW10      29.79S
PHILADELPHIA   PTSUNNY   40  30  67 W15       29.80S
$$


USA.gov is the U.S. government's official web portal to all federal, state and local government web resources and services.